RH
18 18 18 18 17 16 15 15 16 20 22 25 36 51 64 80 91 94 96 89 85 67 71 62 64 77 86 81 78 83 70 58 73
19 18 18 18 17 17 17 17 17 16 14 15 19 21 28 47 64 78 87 95 98 86 75 76 69 70 76 86 82 78 80 70 60
20 19 20 20 21 21 19 18 17 17 17 17 16 14 15 18 23 42 62 80 91 98 93 81 76 77 72 61 65 77 78 76 56
24 26 26 26 28 29 28 26 24 21 19 18 17 17 17 16 15 15 20 43 67 78 97 96 88 78 77 68 62 63 69 71 64
28 27 24 23 22 22 21 21 22 23 22 20 20 19 20 19 18 18 16 15 19 48 72 93 99 92 86 86 71 52 67 63 64
22 22 21 22 21 21 20 19 18 16 16 15 14 13 12 13 16 20 21 21 20 18 30 58 72 90 93 93 89 64 57 68 64
22 23 23 22 22 21 20 20 18 16 12 10 10 10 10 10 10 13 20 22 26 28 29 35 56 65 80 99 99 90 57 53 68
26 25 21 19 18 18 18 18 18 15 11 10 9 8 7 7 9 12 20 25 25 38 50 42 49 60 76 95 97 98 74 56 61
29 25 22 20 18 19 19 18 17 15 13 10 9 7 7 8 10 15 24 32 38 48 57 55 56 76 90 84 86 84 100 100 95
32 29 27 25 22 19 20 18 16 14 12 11 9 8 11 13 15 21 26 37 49 53 59 61 54 54 60 64 74 79 95 98 96
44 40 34 31 28 23 20 16 14 12 12 10 9 10 18 19 22 30 29 37 50 60 64 62 62 56 57 63 54 57 86 91 100
46 45 43 36 32 28 24 20 16 14 12 10 10 13 27 28 33 44 42 38 50 66 68 66 64 59 54 58 53 64 74 86 91
43 45 47 39 35 32 29 22 16 14 12 10 15 33 43 43 45 51 55 50 60 73 73 66 61 54 54 57 75 41 68 74 69
42 46 50 42 36 34 31 23 17 15 12 11 45 64 62 61 62 57 64 66 60 65 68 70 64 60 62 53 48 94 65 65 88
43 50 52 49 40 36 33 24 20 17 13 20 69 81 81 79 77 76 81 85 82 82 81 83 86 80 75 97 98 93 97 90 80
42 48 51 50 43 38 32 25 21 18 14 18 80 88 89 87 87 89 87 85 86 87 87 85 86 81 78 76 76 69 71 60 59
45 51 54 52 48 41 34 28 24 22 18 19 46 80 89 91 92 93 91 86 87 86 83 80 78 79 77 76 74 76 73 72 73
44 52 57 56 51 42 37 32 29 26 24 23 25 48 78 70 91 94 93 92 90 86 82 79 76 73 75 75 76 72 66 67 87
42 50 57 60 57 49 44 38 35 32 30 28 28 36 45 67 74 85 88 87 81 76 80 83 76 75 76 79 72 76 67 65 64
39 45 53 60 62 58 53 46 41 38 36 34 31 38 51 74 82 72 54 40 35 31 26 27 66 77 78 81 83 80 77 77 69
Wind_Speed
12 12 13 13 13 13 14 15 17 18 18 18 19 19 19 18 16 15 17 17 16 16 16 17 16 16 17 16 15 14 12 10 11
13 14 14 14 14 15 15 15 15 16 17 18 20 22 21 21 20 19 18 19 19 20 20 20 19 18 19 18 18 18 17 14 13
14 13 13 12 12 13 13 14 15 15 16 16 17 19 21 23 23 22 22 22 21 21 23 23 22 22 22 22 22 21 20 18 16
12 12 12 12 12 13 14 14 15 15 15 16 17 17 18 20 22 23 24 24 25 26 25 25 26 26 26 24 23 23 22 21 18
12 13 13 14 15 16 16 16 16 17 17 17 18 18 18 19 20 21 22 24 26 28 29 27 28 28 29 28 24 24 24 23 21
12 14 15 16 17 17 18 18 18 19 19 20 21 21 21 21 20 20 21 22 23 25 29 31 30 31 31 32 30 26 26 26 24
14 16 17 18 18 18 18 19 20 20 21 20 20 20 21 21 21 20 20 21 23 23 24 28 29 31 30 34 36 33 28 26 25
15 16 16 16 17 17 18 18 19 20 20 20 19 19 19 19 18 18 18 18 21 22 22 25 29 30 29 29 33 41 28 26 26
15 15 16 16 17 17 18 18 19 19 20 20 19 19 18 17 16 15 15 17 18 19 19 19 20 21 20 11 19 11 26 30 31
15 15 16 16 17 18 18 19 19 20 20 18 19 17 16 15 14 13 14 14 16 17 16 16 19 17 17 28 23 23 2 10 28
15 15 16 16 17 18 19 20 21 21 21 18 17 16 15 13 11 9 13 12 12 12 12 14 14 16 14 13 16 15 28 18 7
16 17 17 16 17 18 18 19 20 20 18 17 15 14 12 11 8 6 10 9 8 9 10 11 13 12 10 7 9 6 18 19 17
17 17 17 17 17 18 18 20 18 19 18 16 12 9 9 7 5 5 7 8 5 5 7 8 9 9 8 8 6 9 8 10 16
16 16 16 16 17 18 18 18 20 19 16 14 8 7 8 4 3 3 4 4 5 8 9 8 7 5 2 5 7 9 12 17 22
16 16 16 16 16 16 17 17 17 18 16 9 5 6 7 6 4 4 3 3 3 3 2 1 2 3 4 10 10 11 14 17 17
14 15 15 15 15 15 16 16 16 15 13 8 2 4 5 4 4 5 5 5 4 3 2 3 2 2 4 4 3 3 7 9 10
14 13 13 13 13 13 14 15 14 14 14 11 4 2 1 2 3 2 2 3 3 3 3 3 3 2 1 1 1 3 2 2 2
13 13 13 12 13 12 13 13 13 12 12 10 7 2 0 4 1 1 1 2 4 4 5 5 2 2 1 0 2 1 1 1 1
12 11 12 12 12 12 12 12 12 12 10 9 8 6 4 2 2 3 4 7 10 10 9 8 6 3 2 2 2 1 1 1 2
11 10 10 11 11 12 12 12 11 11 10 9 7 5 5 3 4 6 4 6 7 9 8 6 10 8 5 4 2 1 1 2 1
Wind_Direction
315 313 311 309 307 302 297 292 288 284 282 281 280 280 279 280 279 276 272 264 261 255 259 260 251 248 239 239 245 250 244 227 225
314 312 310 309 307 304 303 300 295 291 286 280 280 279 280 278 277 274 272 271 267 262 258 258 255 252 245 243 244 249 246 242 224
314 315 315 316 316 314 312 309 303 298 294 291 286 284 281 278 277 274 270 269 270 266 262 259 252 251 248 249 249 249 247 247 229
319 320 320 319 317 317 315 314 310 306 304 299 294 288 284 282 281 279 275 271 269 268 264 260 257 251 245 247 248 244 243 245 234
323 322 320 317 316 316 314 311 307 305 303 301 298 295 292 288 285 283 282 277 271 269 270 271 262 255 247 245 247 242 235 235 229
322 322 320 317 314 313 311 309 307 305 304 303 301 299 297 293 289 287 286 284 281 274 270 272 275 265 249 245 244 241 234 230 222
321 321 319 316 313 311 309 309 308 308 307 305 301 299 295 290 285 282 283 286 286 284 277 269 271 271 271 255 249 240 233 225 220
321 320 318 317 317 315 312 310 308 309 310 309 307 302 298 294 290 286 281 283 282 283 283 280 268 269 270 262 328 214 229 228 223
320 319 320 322 323 322 320 317 316 315 315 315 312 309 306 302 296 290 290 287 289 279 278 287 280 280 272 304 331 353 202 216 230
316 315 319 322 326 327 326 325 322 320 318 318 315 314 310 304 295 301 294 291 294 282 272 283 281 285 304 281 320 248 41 294 230
316 316 318 322 325 328 329 328 328 328 325 323 317 315 311 305 298 307 301 290 293 282 261 262 283 299 310 309 287 328 257 309 260
311 315 319 321 323 326 328 328 329 329 326 325 318 316 314 305 295 297 298 291 293 282 267 266 274 280 292 299 219 274 238 291 308
307 310 315 318 321 323 327 328 332 332 333 333 328 329 331 316 297 289 289 285 283 283 288 290 291 281 259 234 249 239 236 286 302
306 307 312 315 318 319 325 334 333 335 340 345 356 11 19 10 316 302 293 291 278 277 283 291 291 287 281 229 225 210 257 263 249
306 305 308 311 315 318 326 333 336 337 346 356 30 42 41 42 57 64 45 23 18 4 355 13 68 84 129 131 156 186 215 224 246
305 302 304 309 315 320 326 335 338 339 350 10 60 76 55 53 68 58 49 39 39 37 41 52 71 89 95 107 158 197 228 231 236
307 305 304 309 315 322 327 334 340 347 354 5 21 100 154 63 73 66 29 34 27 342 344 20 26 34 27 11 310 217 207 213 236
312 307 304 308 316 321 327 332 339 347 353 1 15 10 326 348 222 236 303 330 314 322 323 318 340 22 11 228 238 280 291 241 222
317 310 304 306 315 321 326 328 335 341 349 352 354 353 322 341 294 239 275 306 305 304 292 276 281 290 293 272 2 360 52 298 275
321 313 303 301 306 314 319 321 326 332 337 343 347 341 341 312 303 307 318 329 320 325 327 293 255 260 274 238 259 336 341 310 340